Location: Caltech
(34.1382°N, 118.1253°W)
Time: 11:32:58
(UTC-07:00)

COSMOS 2428 - Visible Passes

Search period start: 01 September 2014 00:00
Search period end: 11 September 2014 00:00
Orbit: 846 x 856 km, 71.0° (Epoch: 01 September)

Date Brightness Start Highest point End Pass type
(mag) Time Alt. Az. Time Alt. Az. Time Alt. Az.
01 Sep 5.1 03:38:13 10° SE 03:41:24 16° E 03:44:38 10° ENE visible
01 Sep 2.8 05:20:17 14° SW 05:25:03 57° WNW 05:30:39 10° NNE visible
02 Sep 5.0 03:27:07 13° ESE 03:29:10 16° E 03:32:24 10° ENE visible
02 Sep 2.8 05:09:11 22° SW 05:12:50 57° WNW 05:18:25 10° NNE visible
03 Sep 5.0 03:15:56 15° ESE 03:16:56 16° E 03:20:10 10° ENE visible
03 Sep 2.8 04:58:00 31° SW 05:00:36 57° WNW 05:06:12 10° NNE visible
04 Sep 5.0 03:04:40 16° E 03:04:43 16° E 03:07:57 10° ENE visible
04 Sep 2.8 04:46:43 42° WSW 04:48:22 57° WNW 04:53:58 10° NNE visible
05 Sep 5.1 02:53:20 15° E 02:53:20 15° E 02:55:43 10° ENE visible
05 Sep 2.7 04:35:23 53° W 04:36:08 57° WNW 04:41:44 10° NNE visible
06 Sep 5.2 02:41:55 14° ENE 02:41:55 14° ENE 02:43:29 10° ENE visible
06 Sep 2.8 04:23:58 57° WNW 04:23:58 57° WNW 04:29:30 10° NNE visible
07 Sep 5.4 02:30:27 12° ENE 02:30:27 12° ENE 02:31:15 10° ENE visible
07 Sep 3.0 04:12:29 52° NNW 04:12:29 52° NNW 04:17:16 10° NNE visible
08 Sep 5.5 02:18:55 10° ENE 02:18:55 10° ENE 02:19:01 10° ENE visible
08 Sep 3.4 04:00:57 44° NNW 04:00:57 44° NNW 04:05:03 10° NNE visible
09 Sep 3.8 03:49:22 36° N 03:49:22 36° N 03:52:49 10° NNE visible
10 Sep 4.2 03:37:44 29° N 03:37:44 29° N 03:40:35 10° NNE visible
